Weather History for Bemidji, MN

Change the Weather History Date:

Monday, September 17, 2012

  Actual Average Record
Temperature  
Mean Temperature 44 °F -  
Max Temperature 56 °F 65 °F 87 °F (1948)
Min Temperature 32 °F 44 °F 23 °F (1959)
Degree Days  
Heating Degree Days 21    
Moisture  
Dew Point 32 °F    
Average Humidity 67    
Maximum Humidity 96    
Minimum Humidity 34    
Precipitation  
Precipitation 0.00 in - - ()
Sea Level Pressure  
Sea Level Pressure 30.03 in    
Wind  
Wind Speed 7 mph (NW)    
Max Wind Speed 15 mph    
Max Gust Speed 20 mph    
Visibility 9 miles    
Events      
Averages and records for this station are not official NWS values.
T = Trace of Precipitation, MM = Missing Value Source: NWS Daily Summary

Daily Weather History Graph

Daily Weather History Graph

Search for Another Location

Airport:

Trip Planner

Search our weather history database for the weather conditions in past years. The results will help you decide how hot, cold, wet, or windy it might be!

Date:

Astronomy

Sep. 17, 2012 Rise Set
Actual Time 7:00 AM CDT 7:26 PM CDT
Civil Twilight 6:29 AM CDT 7:57 PM CDT
Nautical Twilight 5:53 AM CDT 8:33 PM CDT
Astronomical Twilight 5:15 AM CDT 9:11 PM CDT
Moon 9:03 AM CDT (9/17) 7:54 PM CDT (9/17)
Length of Visible Light 13h 27m
Length of Day
12h 26m
Waxing Crescent, 3% of the Moon is Illuminated
Sep 17
Waxing Crescent
Sep 22
First Quarter
Sep 29
Full
Oct 8
Last Quarter
Oct 15
New

Hourly Weather History & Observations

Time (CDT) Temp. Windchill Dew Point Humidity Pressure Visibility Wind Dir Wind Speed Gust Speed Precip Events Conditions
12:15 AM 46.8 °F - 36.0 °F 66% 30.04 in 7.0 mi NNW 5.8 mph - N/A   Scattered Clouds
12:35 AM 45.0 °F 41.2 °F 35.6 °F 70% 30.04 in 10.0 mi NW 6.9 mph - N/A   Scattered Clouds
12:55 AM 43.9 °F 40.5 °F 35.2 °F 72% 30.03 in 10.0 mi NW 5.8 mph - N/A   Clear
1:15 AM 41.9 °F 37.5 °F 34.7 °F 76% 30.03 in 10.0 mi WNW 6.9 mph - N/A   Clear
1:35 AM 40.1 °F 36.9 °F 34.2 °F 79% 30.03 in 10.0 mi WNW 4.6 mph - N/A   Clear
1:55 AM 38.8 °F 34.6 °F 34.2 °F 83% 30.03 in 10.0 mi NW 5.8 mph - N/A   Clear
2:15 AM 38.5 °F 33.4 °F 34.5 °F 86% 30.02 in 10.0 mi NW 6.9 mph - N/A   Clear
2:35 AM 39.4 °F 34.5 °F 35.2 °F 85% 30.03 in 10.0 mi NW 6.9 mph - N/A   Clear
2:55 AM 39.2 °F 33.6 °F 35.2 °F 86% 30.02 in 10.0 mi NW 8.1 mph - N/A   Clear
3:15 AM 38.5 °F 33.4 °F 34.9 °F 87% 30.03 in 7.0 mi WNW 6.9 mph - N/A   Clear
3:35 AM 39.2 °F 35.0 °F 35.1 °F 85% 30.03 in 10.0 mi WNW 5.8 mph - N/A   Clear
3:55 AM 38.3 °F 33.9 °F 34.5 °F 86% 30.03 in 10.0 mi WNW 5.8 mph - N/A   Clear
4:15 AM 39.2 °F 35.0 °F 35.4 °F 86% 30.03 in 7.0 mi WNW 5.8 mph - N/A   Clear
4:55 AM 36.3 °F 31.6 °F 33.6 °F 90% 30.03 in 10.0 mi WNW 5.8 mph - N/A   Clear
5:15 AM 37.2 °F 31.9 °F 34.5 °F 90% 30.04 in 7.0 mi WNW 6.9 mph - N/A   Clear
5:35 AM 35.2 °F 30.3 °F 33.1 °F 92% 30.04 in 10.0 mi WNW 5.8 mph - N/A   Clear
5:55 AM 34.0 °F 28.8 °F 32.4 °F 94% 30.04 in 10.0 mi WNW 5.8 mph - N/A   Clear
6:15 AM 34.3 °F 29.2 °F 32.5 °F 93% 30.04 in 10.0 mi WNW 5.8 mph - N/A   Clear
6:35 AM 34.2 °F 29.0 °F 32.4 °F 93% 30.05 in 7.0 mi WNW 5.8 mph - N/A   Clear
7:15 AM 32.2 °F 27.7 °F 31.3 °F 96% 30.05 in 7.0 mi WNW 4.6 mph - N/A   Clear
7:35 AM 32.7 °F 28.3 °F 31.8 °F 96% 30.05 in 7.0 mi WNW 4.6 mph - N/A   Clear
7:55 AM 35.4 °F 30.5 °F 34.0 °F 94% 30.05 in 7.0 mi WNW 5.8 mph - N/A   Clear
8:15 AM 37.4 °F 32.8 °F 35.6 °F 93% 30.05 in 7.0 mi WNW 5.8 mph - N/A   Scattered Clouds
8:35 AM 38.5 °F 33.4 °F 36.1 °F 91% 30.05 in 7.0 mi WNW 6.9 mph - N/A   Mostly Cloudy
8:55 AM 40.1 °F 35.3 °F 37.2 °F 89% 30.05 in 7.0 mi WNW 6.9 mph - N/A   Overcast
9:15 AM 42.4 °F 38.1 °F 37.9 °F 84% 30.06 in 7.0 mi NW 6.9 mph - N/A   Scattered Clouds
9:35 AM 45.1 °F 41.4 °F 37.4 °F 74% 30.06 in 10.0 mi NW 6.9 mph - N/A   Clear
9:55 AM 47.5 °F - 36.3 °F 65% 30.06 in 7.0 mi NNW 11.5 mph - N/A   Clear
10:35 AM 49.8 °F - 33.6 °F 54% 30.05 in 7.0 mi NW 10.4 mph - N/A   Clear
10:55 AM 50.9 °F - 32.9 °F 50% 30.05 in 10.0 mi NW 9.2 mph - N/A   Clear
11:15 AM 51.6 °F - 33.4 °F 50% 30.05 in 10.0 mi North 10.4 mph - N/A   Scattered Clouds
11:35 AM 51.4 °F - 33.1 °F 50% 30.05 in 7.0 mi NNW 10.4 mph 16.1 mph N/A   Mostly Cloudy
11:55 AM 51.4 °F - 32.4 °F 48% 30.05 in 7.0 mi NW 10.4 mph - N/A   Mostly Cloudy
12:15 PM 52.7 °F - 31.8 °F 45% 30.04 in 7.0 mi NNW 10.4 mph 17.3 mph N/A   Mostly Cloudy
12:35 PM 53.6 °F - 30.2 °F 41% 30.04 in 10.0 mi NW 11.5 mph - N/A   Mostly Cloudy
12:55 PM 52.9 °F - 30.2 °F 42% 30.03 in 10.0 mi NNW 5.8 mph - N/A   Mostly Cloudy
1:15 PM 53.2 °F - 30.0 °F 41% 30.03 in 10.0 mi North 8.1 mph - N/A   Mostly Cloudy
1:35 PM 54.5 °F - 30.0 °F 39% 30.02 in 10.0 mi North 8.1 mph 17.3 mph N/A   Scattered Clouds
1:55 PM 54.1 °F - 30.0 °F 40% 30.02 in 7.0 mi North 8.1 mph - N/A   Scattered Clouds
2:15 PM 56.1 °F - 29.5 °F 36% 30.01 in 7.0 mi NNW 10.4 mph - N/A   Mostly Cloudy
2:35 PM 56.3 °F - 28.0 °F 34% 30.00 in 7.0 mi NW 13.8 mph 17.3 mph N/A   Mostly Cloudy
2:55 PM 55.0 °F - 28.8 °F 37% 30.01 in 7.0 mi NNW 13.8 mph 17.3 mph N/A   Overcast
3:15 PM 53.6 °F - 28.8 °F 39% 30.00 in 7.0 mi NW 8.1 mph - N/A   Mostly Cloudy
3:35 PM 54.1 °F - 28.9 °F 38% 30.00 in 10.0 mi North 11.5 mph 16.1 mph N/A   Mostly Cloudy
3:55 PM 53.1 °F - 28.8 °F 39% 29.99 in 7.0 mi NW 9.2 mph - N/A   Scattered Clouds
4:15 PM 53.8 °F - 28.0 °F 37% 30.00 in 10.0 mi North 9.2 mph - N/A   Overcast
4:35 PM 53.4 °F - 28.6 °F 38% 30.00 in 10.0 mi West 15.0 mph - N/A   Overcast
4:55 PM 53.4 °F - 28.4 °F 38% 30.00 in 10.0 mi WSW 9.2 mph - N/A   Scattered Clouds
5:15 PM 54.7 °F - 28.0 °F 36% 30.00 in 7.0 mi North 15.0 mph 19.6 mph N/A   Mostly Cloudy
5:35 PM 53.2 °F - 27.5 °F 37% 30.00 in 10.0 mi NNW 9.2 mph - N/A   Mostly Cloudy
6:15 PM 52.9 °F - 28.9 °F 40% 30.00 in 10.0 mi NNW 12.7 mph 18.4 mph N/A   Clear
6:35 PM 51.6 °F - 30.4 °F 44% 30.01 in 10.0 mi North 12.7 mph 18.4 mph N/A   Mostly Cloudy
6:55 PM 49.1 °F - 32.4 °F 53% 30.02 in 7.0 mi North 8.1 mph - N/A   Scattered Clouds
7:15 PM 47.7 °F - 33.3 °F 57% 30.02 in 10.0 mi North 6.9 mph - N/A   Clear
7:35 PM 46.6 °F - 33.4 °F 60% 30.02 in 10.0 mi North 4.6 mph - N/A   Clear
7:55 PM 45.5 °F - 33.8 °F 64% 30.02 in 7.0 mi Calm Calm - N/A   Scattered Clouds
8:15 PM 44.2 °F - 33.6 °F 66% 30.02 in 10.0 mi Calm Calm - N/A   Clear
8:35 PM 42.6 °F - 32.7 °F 68% 30.03 in 10.0 mi Calm Calm - N/A   Clear
8:55 PM 40.3 °F 37.1 °F 32.4 °F 73% 30.03 in 10.0 mi West 4.6 mph - N/A   Clear
9:15 PM 38.7 °F 35.2 °F 31.8 °F 76% 30.03 in 10.0 mi WNW 4.6 mph - N/A   Scattered Clouds
9:35 PM 38.1 °F 34.6 °F 32.0 °F 79% 30.03 in 7.0 mi WNW 4.6 mph - N/A   Scattered Clouds
9:55 PM 37.9 °F 34.4 °F 31.8 °F 79% 30.03 in 7.0 mi West 4.6 mph - N/A   Clear
10:15 PM 36.5 °F 32.7 °F 31.6 °F 83% 30.02 in 10.0 mi West 4.6 mph - N/A   Clear
10:35 PM 35.1 °F 30.1 °F 31.5 °F 87% 30.02 in 7.0 mi WNW 5.8 mph - N/A   Clear
10:55 PM 33.1 °F 27.7 °F 30.4 °F 90% 30.03 in 7.0 mi WNW 5.8 mph - N/A   Clear
11:15 PM 33.6 °F 28.4 °F 30.2 °F 87% 30.03 in 10.0 mi WNW 5.8 mph - N/A   Clear
11:35 PM 32.2 °F 25.8 °F 28.8 °F 87% 30.03 in 10.0 mi WNW 6.9 mph - N/A   Clear
11:55 PM 32.2 °F 26.7 °F 28.8 °F 87% 30.03 in 10.0 mi WNW 5.8 mph - N/A   Clear